TimeCST,TemperatureF,Dew PointF,Humidity,Sea Level PressureIn,VisibilityMPH,Wind Direction,Wind SpeedMPH,Gust SpeedMPH,PrecipitationIn,Events,Conditions,WindDirDegrees,DateUTC
12:14 AM,5.0,1.4,85,30.40,2.0,SE,6.9,-,N/A,Snow,Light Snow,130,2013-12-08 06:14:00
12:34 AM,6.8,1.4,79,30.38,3.0,ESE,9.2,-,N/A,Snow,Light Snow,120,2013-12-08 06:34:00
12:53 AM,6.8,1.4,79,30.37,3.0,SE,9.2,-,N/A,Snow,Light Snow,130,2013-12-08 06:53:00
1:14 AM,6.8,1.4,79,30.35,4.0,SE,8.1,-,N/A,Snow,Light Snow,130,2013-12-08 07:14:00
1:33 AM,8.6,3.2,79,30.34,3.0,ESE,6.9,-,N/A,Snow,Light Snow,120,2013-12-08 07:33:00
1:53 AM,8.6,3.2,79,30.33,4.0,ESE,8.1,-,N/A,Snow,Light Snow,120,2013-12-08 07:53:00
2:14 AM,8.6,3.2,79,30.32,2.5,SE,9.2,-,N/A,Snow,Light Snow,130,2013-12-08 08:14:00
2:33 AM,8.6,3.2,79,30.31,3.0,SE,8.1,-,N/A,Snow,Light Snow,130,2013-12-08 08:33:00
2:53 AM,8.6,5.0,85,30.31,2.0,SE,9.2,-,N/A,Snow,Light Snow,140,2013-12-08 08:53:00
3:14 AM,10.4,5.0,79,30.30,2.5,SE,10.4,-,N/A,Snow,Light Snow,140,2013-12-08 09:14:00
3:33 AM,10.4,5.0,79,30.28,2.0,SE,10.4,-,N/A,Snow,Light Snow,140,2013-12-08 09:33:00
3:54 AM,10.4,5.0,79,30.27,1.8,SSE,10.4,-,N/A,Snow,Light Snow,150,2013-12-08 09:54:00
4:13 AM,10.4,5.0,79,30.26,3.0,SSE,11.5,-,N/A,Snow,Light Snow,150,2013-12-08 10:13:00
4:34 AM,10.4,5.0,79,30.25,2.0,SE,9.2,-,N/A,Snow,Light Snow,140,2013-12-08 10:34:00
4:54 AM,10.4,5.0,79,30.24,2.5,SE,12.7,-,N/A,Snow,Light Snow,140,2013-12-08 10:54:00
5:13 AM,10.4,5.0,79,30.23,2.0,SE,11.5,-,N/A,Snow,Light Snow,140,2013-12-08 11:13:00
5:34 AM,10.4,5.0,79,30.22,3.0,SE,9.2,-,N/A,Snow,Light Snow,140,2013-12-08 11:34:00
5:53 AM,10.4,5.0,79,30.21,3.0,SE,9.2,-,N/A,Snow,Light Snow,130,2013-12-08 11:53:00
6:14 AM,10.4,5.0,79,30.21,3.0,SE,8.1,-,N/A,Snow,Light Snow,130,2013-12-08 12:14:00
6:33 AM,10.4,5.0,79,30.20,2.5,SE,8.1,-,N/A,Snow,Light Snow,130,2013-12-08 12:33:00
6:53 AM,10.4,5.0,79,30.19,2.5,SE,8.1,-,N/A,Snow,Light Snow,130,2013-12-08 12:53:00
7:14 AM,10.4,5.0,79,30.19,3.0,SE,9.2,-,N/A,Snow,Light Snow,130,2013-12-08 13:14:00
7:33 AM,10.4,5.0,79,30.18,2.5,SE,8.1,-,N/A,Snow,Light Snow,130,2013-12-08 13:33:00
7:53 AM,10.4,5.0,79,30.18,1.8,SE,6.9,-,N/A,Snow,Light Snow,130,2013-12-08 13:53:00
8:14 AM,10.4,5.0,79,30.17,1.2,SE,9.2,-,N/A,Snow,Light Snow,130,2013-12-08 14:14:00
8:33 AM,10.4,5.0,79,30.17,1.5,SE,8.1,-,N/A,Snow,Light Snow,140,2013-12-08 14:33:00
8:53 AM,10.4,5.0,79,30.16,1.5,SE,9.2,-,N/A,Snow,Light Snow,140,2013-12-08 14:53:00
9:14 AM,10.4,6.8,85,30.16,1.5,SSE,8.1,-,N/A,Snow,Light Snow,150,2013-12-08 15:14:00
9:33 AM,12.2,5.0,73,30.16,2.5,SSE,6.9,-,N/A,Snow,Light Snow,150,2013-12-08 15:33:00
9:53 AM,12.2,6.8,79,30.15,3.0,SE,8.1,-,N/A,Snow,Light Snow,140,2013-12-08 15:53:00
10:14 AM,12.2,6.8,79,30.15,3.0,SSE,6.9,-,N/A,Snow,Light Snow,150,2013-12-08 16:14:00
10:33 AM,12.2,6.8,79,30.15,3.0,SE,9.2,-,N/A,Snow,Light Snow,140,2013-12-08 16:33:00
10:53 AM,12.2,6.8,79,30.14,1.5,SSE,8.1,-,N/A,Snow,Light Snow,160,2013-12-08 16:53:00
11:14 AM,14.0,8.6,79,30.12,2.0,SSE,8.1,-,N/A,Snow,Light Snow,150,2013-12-08 17:14:00
11:33 AM,14.0,8.6,79,30.11,4.0,SSE,8.1,-,N/A,Snow,Light Snow,160,2013-12-08 17:33:00
11:54 AM,14.0,8.6,79,30.10,2.5,SSE,10.4,-,N/A,Snow,Light Snow,150,2013-12-08 17:54:00
12:13 PM,14.0,8.6,79,30.09,1.8,SSE,8.1,-,N/A,Snow,Light Snow,160,2013-12-08 18:13:00
12:34 PM,14.0,8.6,79,30.07,1.2,SSE,8.1,-,N/A,Snow,Light Snow,150,2013-12-08 18:34:00
12:54 PM,14.0,8.6,79,30.06,2.5,SSE,8.1,-,N/A,Snow,Light Snow,160,2013-12-08 18:54:00
1:13 PM,14.0,8.6,79,30.06,2.5,SSE,5.8,-,N/A,Snow,Light Snow,160,2013-12-08 19:13:00
1:34 PM,14.0,8.6,79,30.05,4.0,SSE,6.9,-,N/A,Snow,Light Snow,160,2013-12-08 19:34:00
1:54 PM,14.0,8.6,79,30.03,4.0,South,4.6,-,N/A,Snow,Light Snow,170,2013-12-08 19:54:00
2:13 PM,14.0,8.6,79,30.03,5.0,South,6.9,-,N/A,Snow,Light Snow,180,2013-12-08 20:13:00
2:34 PM,14.0,8.6,79,30.02,5.0,SSW,5.8,-,N/A,Snow,Light Snow,200,2013-12-08 20:34:00
2:54 PM,14.0,8.6,79,30.02,2.5,South,4.6,-,N/A,Snow,Light Snow,190,2013-12-08 20:54:00
3:13 PM,14.0,8.6,79,30.02,3.0,SSW,3.5,-,N/A,Snow,Light Snow,200,2013-12-08 21:13:00
3:34 PM,14.0,8.6,79,30.03,4.0,SSW,5.8,-,N/A,Snow,Light Snow,210,2013-12-08 21:34:00
3:54 PM,14.0,8.6,79,30.02,3.0,SSW,4.6,-,N/A,Snow,Light Snow,200,2013-12-08 21:54:00
4:13 PM,14.0,8.6,79,30.02,1.2,SSW,3.5,-,N/A,Snow,Light Snow,200,2013-12-08 22:13:00
4:34 PM,14.0,10.4,86,30.02,2.0,SSW,3.5,-,N/A,Snow,Light Snow,210,2013-12-08 22:34:00
4:53 PM,14.0,10.4,86,30.02,5.0,West,3.5,-,N/A,Snow,Light Snow,260,2013-12-08 22:53:00
5:13 PM,14.0,8.6,79,30.02,3.0,WNW,4.6,-,N/A,Snow,Light Snow,290,2013-12-08 23:13:00
5:34 PM,12.2,8.6,85,30.03,1.8,West,3.5,-,N/A,Snow,Light Snow,280,2013-12-08 23:34:00
5:53 PM,12.2,8.6,85,30.03,4.0,WNW,3.5,-,N/A,Snow,Light Snow,290,2013-12-08 23:53:00
6:13 PM,8.6,5.0,85,30.03,5.0,WNW,3.5,-,N/A,Snow,Light Snow,290,2013-12-09 00:13:00
6:34 PM,8.6,5.0,85,30.03,5.0,West,4.6,-,N/A,Snow,Light Snow,280,2013-12-09 00:34:00
6:53 PM,6.8,3.2,85,30.03,7.0,West,6.9,-,N/A,Snow,Light Snow,280,2013-12-09 00:53:00
7:13 PM,5.0,1.4,85,30.04,10.0,West,6.9,-,N/A,,Scattered Clouds,280,2013-12-09 01:13:00
7:34 PM,5.0,3.2,92,30.03,5.0,NW,3.5,-,N/A,Snow,Light Snow,320,2013-12-09 01:34:00
7:53 PM,5.0,1.4,85,30.04,10.0,NW,3.5,-,N/A,,Clear,310,2013-12-09 01:53:00
8:13 PM,3.2,-0.4,85,30.05,10.0,WNW,6.9,-,N/A,,Clear,290,2013-12-09 02:13:00
8:34 PM,3.2,-0.4,85,30.06,10.0,WNW,6.9,-,N/A,,Clear,290,2013-12-09 02:34:00
8:53 PM,3.2,-0.4,85,30.06,10.0,WNW,4.6,-,N/A,,Clear,290,2013-12-09 02:53:00
9:14 PM,1.4,-4.0,78,30.06,10.0,Calm,Calm,-,N/A,,Clear,0,2013-12-09 03:14:00
9:34 PM,1.4,-4.0,78,30.06,7.0,WNW,6.9,-,N/A,,Clear,290,2013-12-09 03:34:00
9:53 PM,5.0,1.4,85,30.06,10.0,West,8.1,-,N/A,,Clear,280,2013-12-09 03:53:00
10:14 PM,5.0,-0.4,78,30.05,10.0,West,5.8,-,N/A,,Clear,280,2013-12-09 04:14:00
10:34 PM,1.4,-4.0,78,30.06,7.0,WNW,5.8,-,N/A,,Clear,290,2013-12-09 04:34:00
10:53 PM,-0.4,-4.0,85,30.05,7.0,NW,5.8,-,N/A,,Clear,310,2013-12-09 04:53:00
11:14 PM,1.4,-4.0,78,30.06,10.0,WNW,8.1,-,N/A,,Clear,290,2013-12-09 05:14:00
11:34 PM,1.4,-4.0,78,30.07,10.0,West,8.1,-,N/A,,Clear,270,2013-12-09 05:34:00
11:53 PM,1.4,-4.0,78,30.06,10.0,West,6.9,-,N/A,,Clear,280,2013-12-09 05:53:00